User: anonymous   Login
Location: *
(48.4333°N, 5.0333°W)
Time: 09:27:14
(UTC+00:00)
Language:

ITAMSAT 1 - Orbit

View from above orbital plane
View from above orbital plane
View from above satellite
View from above satellite

Ground track
Ground track

The orbit data is extracted from the following two-line orbital elements,

1 22826U 93061D   21300.54878033  .00000013  00000-0  22981-4 0  9993
2 22826  98.9061 321.2677 0008966   4.2706 355.8551 14.30469569465117
Epoch (UTC): 27 October 2021 13:10:14
Eccentricity: 0.0008966
inclination: 98.9061°
perigee height: 784 km
apogee height: 796 km
right ascension of ascending node: 321.2677°
argument of perigee: 4.2706°
revolutions per day: 14.30469569
mean anomaly at epoch: 355.8551°
orbit number at epoch: 46511

The dashed part of the orbit path shows where the satellite is in the earth's shadow,  

DLR